CW3007 Weather Reports


time (UTC)temp
C
wind
direction
speed
KPH
gust
KPH
rain 1hr
cm
rain 24hr
cm
rain mn
cm
humidity
%
barometer
mb
20260506184628 21 355 8.0 20.9 0.00 0.00 0.03 75 1010.5
20260506183627 21 348 6.4 17.7 0.00 0.00 0.03 75 1010.6
20260506182628 21 9 11.3 17.7 0.00 0.00 0.03 76 1010.5
20260506180627 21 329 12.9 14.5 0.00 0.00 0.03 78 1010.5
20260506175627 20 17 11.3 14.5 0.00 0.00 0.03 77 1010.2
20260506173628 19 5 8.0 16.1 0.00 0.00 0.03 80 1010.1
20260506172628 18 67 1.6 16.1 0.00 0.00 0.03 81 1010.3
20260506171628 17 47 6.4 16.1 0.00 0.00 0.03 82 1010.3
20260506170627 17 13 4.8 17.7 0.00 0.00 0.03 84 1010.5
20260506164627 16 27 8.0 14.5 0.00 0.00 0.03 86 1010.9
20260506163627 16 14 8.0 22.5 0.00 0.00 0.03 87 1011.1
20260506162627 16 36 8.0 17.7 0.00 0.00 0.03 87 1010.9
20260506161627 16 355 12.9 20.9 0.00 0.00 0.03 87 1011.6
20260506160627 16 355 17.7 30.6 0.00 0.00 0.03 87 1012.2
20260506155627 16 336 8.0 24.1 0.00 0.00 0.03 87 1011.9
20260506154627 16 318 12.9 25.7 0.00 0.00 0.03 86 1012.3
20260506153627 17 324 9.7 32.2 0.00 0.00 0.03 85 1012.0
20260506152627 18 323 12.9 25.7 0.00 0.00 0.00 85 1011.6
20260506151627 18 344 9.7 17.7 0.00 0.00 0.00 85 1010.7
20260506150627 18 5 8.0 25.7 0.00 0.00 0.00 84 1010.7
20260506145627 18 13 14.5 27.4 0.00 0.00 0.00 83 1010.2
20260506144627 20 339 9.7 24.1 0.00 0.00 0.00 82 1009.7
20260506143627 21 351 8.0 25.7 0.00 0.00 0.00 78 1009.6
20260506142627 25 348 6.4 9.7 0.00 0.00 0.00 82 1008.8
20260506141627 25 135 4.8 11.3 0.00 0.00 0.00 82 1008.4
20260506140627 25 106 3.2 9.7 0.00 0.00 0.00 83 1008.5
20260506135627 25 136 3.2 12.9 0.00 0.00 0.00 85 1008.7
20260506133627 25 162 6.4 14.5 0.00 0.00 0.00 85 1008.1
20260506132627 24 114 6.4 12.9 0.00 0.00 0.00 86 1008.0
20260506131627 24 178 6.4 12.9 0.00 0.00 0.00 87 1007.8
20260506130626 24 133 4.8 14.5 0.00 0.00 0.00 87 1007.8
20260506125627 23 171 1.6 8.0 0.00 0.00 0.00 87 1007.8
20260506124627 23 150 1.6 8.0 0.00 0.00 0.00 87 1007.6
20260506123627 23 140 1.6 9.7 0.00 0.00 0.00 87 1007.6
20260506122627 23 126 3.2 4.8 0.00 0.00 0.00 87 1007.5
20260506120627 23 128 4.8 4.8 0.00 0.00 0.00 86 1007.5
20260506115627 23 161 1.6 6.4 0.00 0.00 0.00 86 1007.4
20260506114626 23 155 1.6 9.7 0.00 0.00 0.00 86 1007.3
20260506113627 23 144 3.2 6.4 0.00 0.00 0.00 86 1007.4
20260506112627 23 140 4.8 6.4 0.00 0.00 0.00 86 1007.5
20260506111626 24 173 3.2 6.4 0.00 0.00 0.00 85 1007.4
20260506110626 24 157 4.8 6.4 0.00 0.00 0.00 85 1007.4
20260506105627 24 165 3.2 9.7 0.00 0.00 0.00 85 1007.4
20260506104626 24 360 4.8 12.9 0.00 0.00 0.00 85 1007.3
20260506103626 24 158 4.8 12.9 0.00 0.00 0.00 85 1007.2
20260506101627 24 167 8.0 12.9 0.00 0.00 0.00 85 1007.0
20260506100627 24 181 4.8 12.9 0.00 0.00 0.00 85 1006.9
20260506095626 24 171 6.4 12.9 0.00 0.00 0.00 85 1007.0
20260506094626 24 192 4.8 11.3 0.00 0.00 0.00 85 1006.8
20260506093627 24 153 4.8 16.1 0.00 0.00 0.00 84 1006.7
20260506092627 24 182 3.2 12.9 0.00 0.00 0.00 84 1006.6
20260506091627 24 160 3.2 14.5 0.00 0.00 0.00 84 1006.5
20260506090626 24 214 4.8 14.5 0.00 0.00 0.00 84 1006.4
20260506085626 24 173 12.9 12.9 0.00 0.00 0.00 84 1006.4
20260506084626 24 139 3.2 12.9 0.00 0.00 0.00 84 1006.6
20260506083627 24 190 6.4 16.1 0.00 0.00 0.00 84 1006.5
20260506082627 24 155 6.4 17.7 0.00 0.00 0.00 84 1006.4
20260506081626 24 197 8.0 17.7 0.00 0.00 0.00 84 1006.2
20260506080626 24 194 9.7 22.5 0.00 0.00 0.00 84 1006.2
20260506071628 24 160 8.0 22.5 0.00 0.00 0.00 85 1006.5
20260506070628 24 185 12.9 20.9 0.00 0.00 0.00 84 1006.5
20260506061627 24 195 12.9 25.7 0.00 0.00 0.00 84 1006.4
20260506060627 24 167 14.5 20.9 0.00 0.00 0.00 84 1006.3
20260506050626 24 187 12.9 20.9 0.00 0.00 0.00 84 1006.6
20260506043627 25 169 11.3 22.5 0.00 0.00 0.00 83 1006.6
20260506042628 25 124 4.8 17.7 0.00 0.00 0.00 83 1006.5
20260506041628 25 144 6.4 19.3 0.00 0.00 0.00 83 1006.4
20260506040627 25 144 3.2 17.7 0.00 0.00 0.00 83 1006.4
20260506035627 25 117 9.7 17.7 0.00 0.00 0.00 83 1006.3
20260506034627 25 136 4.8 14.5 0.00 0.00 0.00 83 1006.0
20260506033626 25 187 8.0 14.5 0.00 0.00 0.00 83 1005.9
20260506032628 25 147 12.9 16.1 0.00 0.00 0.00 82 1005.8
20260506031627 25 161 9.7 16.1 0.00 0.00 0.00 82 1005.6
20260506030627 25 160 11.3 16.1 0.00 0.00 0.00 81 1005.6
20260506025627 25 206 9.7 16.1 0.00 0.00 0.00 81 1005.5
20260506024627 25 136 14.5 19.3 0.00 0.00 0.00 80 1005.4
20260506023627 26 144 4.8 14.5 0.00 0.00 0.00 80 1005.2
20260506022628 26 119 6.4 16.1 0.00 0.00 0.00 79 1004.9
20260506020626 26 133 3.2 12.9 0.00 0.00 0.00 78 1004.7
20260506015626 26 126 4.8 8.0 0.00 0.00 0.00 78 1004.4
20260506014626 26 139 4.8 6.4 0.00 0.00 0.00 77 1004.4
20260506013627 26 148 3.2 11.3 0.00 0.00 0.00 76 1004.5
20260506012626 26 138 3.2 14.5 0.00 0.00 0.00 75 1004.4
20260506010626 27 146 4.8 11.3 0.00 0.00 0.00 74 1004.4
20260506004626 27 157 4.8 12.9 0.00 0.00 0.00 73 1004.4
20260506003626 27 167 8.0 12.9 0.00 0.00 0.00 72 1004.4
20260506002626 27 144 4.8 11.3 0.00 0.00 0.00 72 1004.3
20260506001626 27 167 12.9 14.5 0.00 0.00 0.00 72 1004.3
20260505235626 28 174 3.2 14.5 0.00 0.00 0.00 72 1004.4
20260505234626 28 161 3.2 14.5 0.00 0.00 0.00 72 1004.2
20260505232626 28 133 12.9 22.5 0.00 0.00 0.00 70 1004.0
20260505231626 28 180 4.8 14.5 0.00 0.00 0.00 71 1003.7
20260505230626 28 161 8.0 19.3 0.00 0.00 0.00 71 1003.8
20260505225626 28 153 8.0 24.1 0.00 0.00 0.00 70 1003.7
20260505224626 28 182 6.4 20.9 0.00 0.00 0.00 70 1003.7
20260505223626 28 160 8.0 20.9 0.00 0.00 0.00 70 1003.8
20260505222626 28 163 11.3 19.3 0.00 0.00 0.00 70 1003.6
20260505221626 28 127 8.0 24.1 0.00 0.00 0.00 70 1003.6
20260505220626 28 209 9.7 22.5 0.00 0.00 0.00 68 1003.7
20260505214627 28 159 12.9 20.9 0.00 0.00 0.00 68 1004.2
20260505213626 28 143 12.9 22.5 0.00 0.00 0.00 68 1004.2
20260505212627 28 169 20.9 24.1 0.00 0.00 0.00 68 1004.2
20260505211627 28 169 27.4 30.6 0.00 0.00 0.00 68 1004.5
20260505210626 28 122 8.0 25.7 0.00 0.00 0.00 68 1004.5
20260505202627 28 177 16.1 27.4 0.00 0.00 0.00 69 1004.9
20260505201627 28 191 12.9 24.1 0.00 0.00 0.00 70 1005.1
20260505200626 27 196 14.5 29.0 0.00 0.00 0.00 71 1005.3
20260505195626 28 121 4.8 25.7 0.00 0.00 0.00 72 1005.3
20260505192626 27 175 16.1 22.5 0.00 0.00 0.00 71 1005.6
20260505191626 27 205 8.0 27.4 0.00 0.00 0.00 70 1006.0
20260505185626 27 188 12.9 25.7 0.00 0.00 0.00 72 1006.0